| time (UTC) | temp F | wind direction | speed MPH | gust MPH | rain 1hr in | rain 24hr in | rain mn in | humidity % | barometer mb |
| 20260503013057 | 49 | 70 | 0.0 | 1.0 | 0.00 | 0.67 | 0.00 | 94 | 1015.8 |
| 20260503011605 | 49 | 63 | 0.0 | 2.0 | 0.00 | 0.67 | 0.00 | 94 | 1016.2 |
| 20260503010100 | 49 | 0 | 0.0 | 1.0 | 0.00 | 0.67 | 0.00 | 94 | 1016.3 |
| 20260503004601 | 49 | 0 | 0.0 | 1.0 | 0.00 | 0.67 | 0.00 | 94 | 1016.4 |
| 20260503003059 | 49 | 0 | 0.0 | 3.0 | 0.00 | 0.67 | 0.00 | 94 | 1016.2 |
| 20260503001603 | 49 | 122 | 0.0 | 1.0 | 0.00 | 0.66 | 0.00 | 94 | 1016.6 |
| 20260503000108 | 49 | 116 | 1.0 | 2.0 | 0.00 | 0.66 | 0.00 | 93 | 1016.7 |
| 20260502234615 | 49 | 117 | 1.0 | 1.0 | 0.00 | 0.66 | 0.00 | 93 | 1017.0 |
| 20260502233109 | 49 | 0 | 0.0 | 3.0 | 0.00 | 0.66 | 0.00 | 93 | 1017.1 |
| 20260502231612 | 49 | 72 | 1.0 | 3.0 | 0.00 | 0.66 | 0.00 | 93 | 1016.9 |
| 20260502230059 | 49 | 63 | 0.0 | 1.0 | 0.00 | 0.66 | 0.00 | 93 | 1017.1 |
| 20260502224559 | 49 | 101 | 0.0 | 1.0 | 0.00 | 0.66 | 0.00 | 93 | 1017.2 |
| 20260502223057 | 50 | 0 | 0.0 | 1.0 | 0.00 | 0.66 | 0.00 | 93 | 1017.2 |
| 20260502221604 | 50 | 0 | 0.0 | 1.0 | 0.00 | 0.66 | 0.00 | 93 | 1017.3 |
| 20260502220106 | 50 | 0 | 0.0 | 1.0 | 0.00 | 0.66 | 0.00 | 93 | 1017.5 |
| 20260502214608 | 50 | 0 | 0.0 | 1.0 | 0.00 | 0.66 | 0.66 | 93 | 1017.4 |
| 20260502213059 | 50 | 0 | 0.0 | 1.0 | 0.00 | 0.66 | 0.66 | 93 | 1017.5 |
| 20260502211608 | 50 | 0 | 0.0 | 1.0 | 0.00 | 0.66 | 0.66 | 92 | 1017.4 |
| 20260502210109 | 51 | 0 | 0.0 | 4.0 | 0.00 | 0.66 | 0.66 | 91 | 1017.1 |
| 20260502204559 | 51 | 0 | 0.0 | 1.0 | 0.00 | 0.66 | 0.66 | 91 | 1017.2 |
| 20260502203113 | 52 | 176 | 3.0 | 6.0 | 0.00 | 0.66 | 0.66 | 90 | 1016.9 |
| 20260502201558 | 52 | 0 | 0.0 | 4.0 | 0.00 | 0.66 | 0.66 | 90 | 1016.9 |
| 20260502200059 | 52 | 151 | 1.0 | 5.0 | 0.00 | 0.66 | 0.66 | 90 | 1016.8 |
| 20260502194600 | 52 | 132 | 1.0 | 8.0 | 0.00 | 0.66 | 0.66 | 90 | 1016.6 |
| 20260502193057 | 52 | 168 | 1.0 | 3.0 | 0.00 | 0.66 | 0.66 | 92 | 1016.4 |
| 20260502191557 | 53 | 208 | 1.0 | 4.0 | 0.00 | 0.66 | 0.66 | 91 | 1016.3 |
| 20260502190100 | 53 | 248 | 0.0 | 3.0 | 0.00 | 0.66 | 0.66 | 91 | 1016.1 |
| 20260502184559 | 53 | 247 | 1.0 | 4.0 | 0.00 | 0.66 | 0.66 | 91 | 1016.0 |
| 20260502183100 | 54 | 0 | 0.0 | 1.0 | 0.00 | 0.66 | 0.66 | 92 | 1016.0 |
| 20260502181559 | 54 | 0 | 0.0 | 1.0 | 0.00 | 0.66 | 0.66 | 91 | 1016.0 |
| 20260502163105 | 52 | 331 | 0.0 | 2.0 | 0.29 | 0.66 | 0.66 | 93 | 1016.9 |
| 20260502161606 | 51 | 0 | 0.0 | 2.0 | 0.37 | 0.63 | 0.63 | 92 | 1017.1 |
| 20260502160104 | 51 | 212 | 1.0 | 6.0 | 0.32 | 0.56 | 0.56 | 92 | 1017.6 |
| 20260502151611 | 51 | 321 | 6.0 | 14.0 | 0.03 | 0.26 | 0.26 | 89 | 1017.2 |
| 20260502150109 | 52 | 96 | 11.0 | 18.0 | 0.01 | 0.24 | 0.24 | 86 | 1018.1 |
| 20260502123111 | 56 | 228 | 2.0 | 9.0 | 0.00 | 0.22 | 0.22 | 89 | 1018.9 |
| 20260502121603 | 55 | 139 | 2.0 | 9.0 | 0.00 | 0.22 | 0.22 | 89 | 1019.0 |
| 20260502120114 | 55 | 245 | 4.0 | 8.0 | 0.00 | 0.22 | 0.22 | 89 | 1019.5 |
| 20260502114603 | 55 | 0 | 0.0 | 4.0 | 0.00 | 0.22 | 0.22 | 91 | 1019.5 |
| 20260502113100 | 54 | 0 | 0.0 | 3.0 | 0.00 | 0.22 | 0.22 | 91 | 1019.8 |
| 20260502111602 | 53 | 0 | 3.0 | 5.0 | 0.01 | 0.22 | 0.22 | 90 | 1019.8 |
| 20260502110100 | 54 | 11 | 1.0 | 4.0 | 0.03 | 0.22 | 0.22 | 90 | 1020.1 |
| 20260502104559 | 55 | 263 | 3.0 | 8.0 | 0.18 | 0.22 | 0.22 | 91 | 1020.4 |
| 20260502103113 | 54 | 267 | 1.0 | 6.0 | 0.18 | 0.22 | 0.22 | 91 | 1020.3 |
| 20260502101601 | 54 | 207 | 0.0 | 6.0 | 0.18 | 0.21 | 0.21 | 91 | 1020.2 |
| 20260502100125 | 54 | 161 | 4.0 | 7.0 | 0.16 | 0.19 | 0.19 | 90 | 1020.4 |
| 20260502090116 | 55 | 200 | 3.0 | 9.0 | 0.03 | 0.03 | 0.03 | 89 | 1020.4 |
| 20260502070101 | 55 | 114 | 2.0 | 8.0 | 0.00 | 0.00 | 0.00 | 84 | 1020.5 |
| 20260502064608 | 55 | 235 | 6.0 | 10.0 | 0.00 | 0.00 | 0.00 | 84 | 1020.4 |
| 20260502063058 | 55 | 194 | 6.0 | 13.0 | 0.00 | 0.00 | 0.00 | 84 | 1020.3 |
| 20260502061559 | 54 | 320 | 7.0 | 14.0 | 0.00 | 0.00 | 0.00 | 84 | 1020.4 |
| 20260502060101 | 54 | 134 | 6.0 | 13.0 | 0.00 | 0.00 | 0.00 | 84 | 1020.2 |
| 20260502054600 | 54 | 169 | 5.0 | 10.0 | 0.00 | 0.00 | 0.00 | 85 | 1020.2 |
| 20260502053058 | 54 | 243 | 2.0 | 8.0 | 0.00 | 0.00 | 0.00 | 85 | 1020.0 |
| 20260502051652 | 54 | 174 | 4.0 | 12.0 | 0.00 | 0.00 | 0.00 | 85 | 1020.0 |
| 20260502050100 | 54 | 141 | 8.0 | 13.0 | 0.00 | 0.00 | 0.00 | 84 | 1020.2 |
| 20260502044608 | 54 | 148 | 6.0 | 12.0 | 0.00 | 0.00 | 0.00 | 84 | 1020.2 |
| 20260502043109 | 54 | 173 | 7.0 | 13.0 | 0.00 | 0.00 | 0.00 | 84 | 1020.3 |
| 20260502041556 | 54 | 153 | 6.0 | 11.0 | 0.00 | 0.00 | 0.00 | 84 | 1020.4 |
| 20260502040059 | 54 | 237 | 5.0 | 9.0 | 0.00 | 0.00 | 0.00 | 84 | 1020.6 |
| 20260502034557 | 54 | 109 | 3.0 | 8.0 | 0.00 | 0.00 | 0.00 | 84 | 1020.6 |
| 20260502033059 | 53 | 134 | 1.0 | 2.0 | 0.00 | 0.00 | 0.00 | 84 | 1020.7 |
| 20260502031610 | 53 | 0 | 0.0 | 1.0 | 0.00 | 0.00 | 0.00 | 83 | 1020.7 |
| 20260502030057 | 53 | 115 | 0.0 | 1.0 | 0.00 | 0.00 | 0.00 | 83 | 1020.7 |
| 20260502024600 | 53 | 0 | 0.0 | 0.0 | 0.00 | 0.00 | 0.00 | 82 | 1020.7 |
| 20260502023058 | 53 | 0 | 0.0 | 1.0 | 0.00 | 0.00 | 0.00 | 82 | 1020.8 |
| 20260502021559 | 53 | 139 | 0.0 | 1.0 | 0.00 | 0.00 | 0.00 | 81 | 1020.7 |
| 20260502020108 | 53 | 0 | 0.0 | 1.0 | 0.00 | 0.00 | 0.00 | 80 | 1020.9 |
| 20260502014557 | 54 | 149 | 1.0 | 4.0 | 0.00 | 0.00 | 0.00 | 79 | 1020.9 |